OPS 0100 DEB *, 4843

Orbit data source: Space-Track

OPS 0100 DEB *, 4843 is space debris in LEO originally from a launch on Fri, 14 Apr 1967 UTC launched from the Air Force Western Test Range (AFWTR). Debris objects in space refer to the collection of defunct objects orbiting the Earth. Examples of debris include non-operational satellites, rocket bodies, and fragments generated from explosions, collisions, or faulty payload assembly.

Loading next visibility...
Identifier
4843, 1967-034E
Orbit
LEO
Last TLE update
19 hours ago
Origin
Manufacturer
Unknown
Mission
Spacecraft
Bus & Motor
Unknown
Mass
Unknown
Launch date (UTC)
1967-04-14 (58 years ago)
Launch vehicle
Unknown
Launch site
Air Force Western Test Range (AFWTR)
Object type
Payload
Rocket body
Debris
Shape & HBR
Unknown
Radar Cross Section
Small (<0.1 m²)

Expand to show TLE details & history

TLE from 19 hours ago
0 OPS 0100 DEB *
1 04843U 67034E   25128.46748293  .00000192  00000-0  27756-3 0  9992
2 04843  90.3767 126.0677 0025941 224.4756 288.5013 13.52533180218934
Epoch: 2025-05-08T11:13Z
Definitive object data (Epoch: 2025-05-08T11:13:10.525Z)
Latitude
27.34117°
Longitude
-88.56994°
Altitude
1,060.275 km
Speed
7.327 km/s
True Right ascension
20h 25m 02s
True Declination
27° 12' 25"
Sunlit
Object was in daylight at TLE epoch
Visualization TLE readout
Latitude
86.19396°
Longitude
-83.09051°
Altitude
1,088.74 km
Speed
7.309 km/s
Apparent Right ascension
02h 13m 21s
Apparent Declination
34° 10' 19"
Sunlit
Object is in daylight
Visualization observer readout
Local Sidereal Time
14:36:24
Azimuth
4.949° NNE
Elevation
-15.721°
Doppler factor
1
Orbital elements
Apogee altitude
1,079.295 km
Perigee altitude
1,040.704 km
Semi-major axis
7,438.136 km
Eccentricity
0.0025941
Inclination
90.3767°
RAAN
126.0677°
Arg. of periapsis
224.4756°
True anomaly
288.21911°
Mean anomaly
288.5013°
Eccentric anomaly
288.36024°
Mean motion
3.38335 °/min
BSTAR
0.00027756
Orbital period
106.4 mins
Loading maneuver chart data...
Loading SW <> Apogee altitude chart data...
Loading historical data...
Loading historical data...
Loading historical data...
Loading historical data...
Loading historical data...
Loading historical data...
Loading historical data...

OPS 0100 DEB * Visibility forecast

Observer location: undefined°, undefined°

Span
Click to sort rows by Start time (UTC) header in descending order
Start Az.
Max El. time (UTC)
Max El. Az.
Max El.
End time (UTC)
End Az.
12 mins2025-05-09 11:54:34.075Z7.49° NNE2025-05-09 12:00:34.075Z69.46° E43.031°2025-05-09 12:06:34.075Z173.882° S
6 mins2025-05-09 13:43:34.075Z318.352° NNW2025-05-09 13:46:34.075Z286.826° WNW17.425°2025-05-09 13:49:34.075Z256.23° W
11 mins2025-05-09 23:51:34.075Z164.636° S2025-05-09 23:56:34.075Z107.35° ESE43.153°2025-05-10 00:02:34.075Z2.997° NNE
7 mins2025-05-10 01:40:34.075Z249.25° W2025-05-10 01:43:34.075Z279.453° WNW17.204°2025-05-10 01:47:34.075Z318.791° NNW
|